User: anonymous   Login
Location: Alumbaugh
(37.5976°N, 83.9299°W)
Time: 12:15:21
(UTC+00:00)
Language:

YUBILEINY - Orbit

View from above orbital plane
View from above orbital plane
View from above satellite
View from above satellite

Ground track
Ground track

The orbit data is extracted from the following two-line orbital elements,

1 32953U 08025A   23087.07883726  .00000024  00000-0  10000-3 0  9998
2 32953  82.5094   7.5424 0020131   4.1628 355.9617 12.43121050673575
Epoch (UTC): 28 March 2023 01:53:31
Eccentricity: 0.0020131
inclination: 82.5094°
perigee height: 1477 km
apogee height: 1509 km
right ascension of ascending node: 7.5424°
argument of perigee: 4.1628°
revolutions per day: 12.43121050
mean anomaly at epoch: 355.9617°
orbit number at epoch: 67357

The dashed part of the orbit path shows where the satellite is in the earth's shadow,  

DLR